Regional Weather Roundup
Issued by NWS Albany, NY

Home | Current Version | Previous Version | Text Only | Print | Product List | Glossary On
Versions: 1 2 3 4 5 6 7 8 9 10 11 12 13 14 15 16 17 18 19 20 21 22 23 24 25 26 27 28 29 30 31 32 33 34 35 36 37 38 39 40 41 42 43 44 45 46 47 48
000
ASUS41 KALY 280810
RWRALY

NEW YORK STATE HOURLY WEATHER ROUNDUP
NATIONAL WEATHER SERVICE ALBANY NY
300 AM EST SUN DEC 28 2014

NOTE: "FAIR" INDICATES FEW OR NO CLOUDS BELOW 12,000 FEET WITH NO
SIGNIFICANT WEATHER AND/OR NO OBSTRUCTIONS TO VISIBILITY.

NYZ032-033-038>043-046>054-057>066-NYZ062>081-280900-
EAST


CITY           SKY/WX    TMP DP  RH WIND       PRES   REMARKS
ALBANY         RAIN      44  38  79 SE8       29.91R
GLENS FALLS    LGT RAIN  42  38  85 S9        29.86S
POUGHKEEPSIE   CLOUDY    45  34  65 CALM      29.92F
NEWBURGH       CLOUDY    45  36  70 CALM      29.93F
MONTGOMERY     CLOUDY    47  31  53 SW9       29.91F
WHITE PLAINS   MOCLDY    46  36  68 CALM      29.94F
ISLIP          MOCLDY    45  40  82 SW10      29.95F
NEW YORK CITY  MOCLDY    47  36  65 S7        29.96F
CENTRAL PARK   MOCLDY    50  35  56 W8G18     29.98F
$$

NYZ005>009-017-018-044>046-055-056-280900-
CENTRAL


CITY           SKY/WX    TMP DP  RH WIND       PRES   REMARKS
FULTON         LGT RAIN  47  40  76 SW5       29.84R
SYRACUSE       LGT RAIN  48  41  76 S8        29.85R
ROME           LGT RAIN  45  42  89 S6        29.87F
ELMIRA         LGT RAIN  47  42  83 SW10      29.88S
BINGHAMTON     LGT RAIN  42  36  79 SW10      29.88R
MONTICELLO     CLOUDY    43  34  70 CALM      29.92F
$$

NYZ026>034-041>043-280900-
NORTH


CITY           SKY/WX    TMP DP  RH WIND       PRES   REMARKS
WATERTOWN      LGT RAIN  48  40  73 SW13G21   29.80S
FORT DRUM      NOT AVBL
MASSENA        CLOUDY    50  40  68 SW16G29   29.72S
SARANAC LAKE   CLOUDY    43  35  73 SW16G25   29.73F
PLATTSBURGH    CLOUDY    44  35  70 S10       29.73F
$$

NYZ001>004-010>016-019>021-280900-
WEST


CITY           SKY/WX    TMP DP  RH WIND       PRES   REMARKS
NIAGARA FALLS  RAIN      39  35  86 W18       29.89R WCI  30
BUFFALO        LGT RAIN  40  37  89 W16G29    29.90R WCI  31
DUNKIRK        RAIN      40  38  93 W8G22     29.94R FOG     WCI  34
JAMESTOWN      CLOUDY    43  39  87 W15G24    29.91R
WELLSVILLE     LGT RAIN  42  39  89 SW10      29.87F
ROCHESTER      LGT RAIN  48  43  82 W14G23    29.85R
PENN YAN       LGT RAIN  48  40  73 SW13      29.85F
$$

             KEY
       WCI = WIND CHILL INDEX
       VSB = VISIBILITY
       HX  = HEAT INDEX
$$


USA.gov is the U.S. government's official web portal to all federal, state and local government web resources and services.